When you browse on this site, cookies collect data to enhance your experience and personalize the content and advertising you see.
Visit our Privacy Policy to learn more. By continuing to use the site, you agree to this use of cookies and data.
  • In Slovakia
  • List of Countries
  • For 7 days
  • Water Temperature
  • Satellite Maps
  • Weather Map
  • Weather Widgets
  • user-avatar
    Login

    Hourly Weather Wylazy

    Today, 21 April, Sunday

    Time Temperature Precipitation Wind Pressure Humidity
    00:00 +9°C° 0 mm 3 mps 755 mmHg 73%
    01:00 +8°C° 0 mm 3 mps 754 mmHg 75%
    02:00 +7°C° 0 mm 3 mps 754 mmHg 78%
    03:00 +5°C° 0 mm 3 mps 754 mmHg 82%
    04:00 +5°C° 0 mm 3 mps 754 mmHg 85%
    05:00 +5°C° 0 mm 3 mps 754 mmHg 82%
    06:00 +7°C° 0 mm 3 mps 754 mmHg 80%
    07:00 +8°C° 0 mm 3 mps 754 mmHg 77%
    08:00 +10°C° 0 mm 4 mps 754 mmHg 69%
    09:00 +12°C° 0 mm 4 mps 753 mmHg 62%
    10:00 +13°C° 0 mm 5 mps 753 mmHg 54%
    11:00 +13°C° 0.1 mm 4 mps 753 mmHg 55%
    12:00 +12°C° 0.1 mm 4 mps 752 mmHg 57%
    13:00 +12°C° 0.1 mm 4 mps 752 mmHg 58%
    14:00 +11°C° 0.8 mm 4 mps 751 mmHg 65%
    15:00 +10°C° 0.8 mm 3 mps 751 mmHg 72%
    16:00 +9°C° 0.8 mm 3 mps 750 mmHg 79%
    17:00 +8°C° 1.5 mm 2 mps 750 mmHg 83%
    18:00 +7°C° 1.5 mm 2 mps 750 mmHg 86%
    19:00 +7°C° 1.5 mm 1 mps 750 mmHg 90%
    20:00 +7°C° 0.3 mm 1 mps 750 mmHg 90%
    21:00 +7°C° 0.3 mm 1 mps 750 mmHg 91%
    22:00 +5°C° 0.3 mm 0 mps 750 mmHg 91%
    23:00 +6°C° 0.2 mm 1 mps 750 mmHg 92%

    Tomorrow, 22 April, Monday

    Time Temperature Precipitation Wind Pressure Humidity
    00:00 +6°C° 0.2 mm 1 mps 750 mmHg 93%
    01:00 +5°C° 0.2 mm 2 mps 751 mmHg 93%
    02:00 +5°C° 0 mm 2 mps 751 mmHg 94%
    03:00 +4°C° 0 mm 3 mps 751 mmHg 95%
    04:00 +4°C° 0 mm 3 mps 751 mmHg 96%
    05:00 +5°C° 0 mm 4 mps 751 mmHg 92%
    06:00 +7°C° 0 mm 5 mps 752 mmHg 88%
    07:00 +8°C° 0 mm 5 mps 752 mmHg 85%
    08:00 +10°C° 0 mm 6 mps 753 mmHg 79%
    09:00 +11°C° 0 mm 7 mps 753 mmHg 73%
    10:00 +14°C° 0 mm 7 mps 754 mmHg 67%
    11:00 +13°C° 0 mm 8 mps 754 mmHg 63%
    12:00 +13°C° 0 mm 8 mps 754 mmHg 59%
    13:00 +15°C° 0 mm 8 mps 754 mmHg 56%
    14:00 +15°C° 0 mm 8 mps 754 mmHg 54%
    15:00 +15°C° 0 mm 7 mps 754 mmHg 52%
    16:00 +15°C° 0 mm 7 mps 754 mmHg 50%
    17:00 +13°C° 0 mm 6 mps 754 mmHg 53%
    18:00 +11°C° 0 mm 6 mps 754 mmHg 56%
    19:00 +9°C° 0 mm 5 mps 755 mmHg 60%
    20:00 +9°C° 0 mm 5 mps 755 mmHg 59%
    21:00 +8°C° 0 mm 5 mps 755 mmHg 58%
    22:00 +8°C° 0 mm 5 mps 755 mmHg 57%
    23:00 +7°C° 0 mm 6 mps 755 mmHg 58%

    Day after tomorrow, 23 April, Tuesday

    Time Temperature Precipitation Wind Pressure Humidity
    00:00 +7°C° 0 mm 6 mps 755 mmHg 58%
    01:00 +7°C° 0 mm 6 mps 755 mmHg 59%
    02:00 +5°C° 0 mm 6 mps 755 mmHg 59%
    03:00 +5°C° 0 mm 6 mps 755 mmHg 59%
    04:00 +5°C° 0 mm 6 mps 755 mmHg 60%
    05:00 +6°C° 0 mm 7 mps 755 mmHg 58%
    06:00 +7°C° 0 mm 8 mps 755 mmHg 56%
    07:00 +8°C° 0 mm 9 mps 755 mmHg 54%
    08:00 +9°C° 0 mm 10 mps 755 mmHg 51%
    09:00 +12°C° 0 mm 10 mps 755 mmHg 48%
    10:00 +13°C° 0 mm 10 mps 755 mmHg 45%
    11:00 +14°C° 0 mm 11 mps 755 mmHg 44%
    12:00 +14°C° 0 mm 11 mps 754 mmHg 43%
    13:00 +16°C° 0 mm 11 mps 754 mmHg 42%
    14:00 +16°C° 0 mm 10 mps 753 mmHg 43%
    15:00 +16°C° 0 mm 10 mps 753 mmHg 45%
    16:00 +14°C° 0 mm 10 mps 753 mmHg 47%
    17:00 +13°C° 0 mm 9 mps 753 mmHg 49%
    18:00 +12°C° 0 mm 8 mps 752 mmHg 52%
    19:00 +11°C° 0 mm 7 mps 752 mmHg 55%
    20:00 +11°C° 0 mm 8 mps 752 mmHg 55%
    21:00 +10°C° 0 mm 8 mps 752 mmHg 55%
    22:00 +10°C° 0 mm 8 mps 753 mmHg 55%
    23:00 +10°C° 0 mm 8 mps 752 mmHg 57%

    24 April, Wednesday

    Time Temperature Precipitation Wind Pressure Humidity
    00:00 +10°C° 0 mm 8 mps 752 mmHg 58%
    01:00 +8°C° 0 mm 9 mps 752 mmHg 59%
    02:00 +8°C° 0 mm 9 mps 752 mmHg 61%
    03:00 +8°C° 0 mm 9 mps 752 mmHg 62%
    04:00 +8°C° 0 mm 9 mps 751 mmHg 63%
    05:00 +8°C° 0.1 mm 9 mps 751 mmHg 64%
    06:00 +8°C° 0.1 mm 9 mps 751 mmHg 66%
    07:00 +8°C° 0.1 mm 10 mps 751 mmHg 67%
    08:00 +9°C° 0.1 mm 10 mps 751 mmHg 66%
    09:00 +11°C° 0.1 mm 10 mps 751 mmHg 64%
    10:00 +12°C° 0.1 mm 10 mps 751 mmHg 63%
    11:00 +13°C° 0 mm 10 mps 751 mmHg 61%
    12:00 +14°C° 0 mm 10 mps 751 mmHg 59%
    13:00 +17°C° 0 mm 10 mps 751 mmHg 56%
    14:00 +17°C° 0 mm 9 mps 751 mmHg 57%
    15:00 +18°C° 0 mm 8 mps 751 mmHg 58%
    16:00 +18°C° 0 mm 8 mps 751 mmHg 59%
    17:00 +17°C° 0 mm 8 mps 751 mmHg 61%
    18:00 +16°C° 0 mm 7 mps 751 mmHg 64%
    19:00 +15°C° 0 mm 7 mps 751 mmHg 67%
    20:00 +15°C° 0 mm 6 mps 751 mmHg 69%
    21:00 +14°C° 0 mm 6 mps 751 mmHg 70%
    22:00 +13°C° 0 mm 6 mps 751 mmHg 72%
    23:00 +13°C° 0 mm 6 mps 751 mmHg 74%

    25 April, Thursday

    Time Temperature Precipitation Wind Pressure Humidity
    00:00 +11°C° 0 mm 6 mps 751 mmHg 75%
    01:00 +11°C° 0 mm 6 mps 751 mmHg 76%
    02:00 +10°C° 0 mm 6 mps 751 mmHg 77%
    03:00 +10°C° 0 mm 6 mps 751 mmHg 78%
    04:00 +10°C° 0 mm 6 mps 751 mmHg 79%
    05:00 +11°C° 0 mm 6 mps 751 mmHg 78%
    06:00 +11°C° 0 mm 6 mps 751 mmHg 76%
    07:00 +13°C° 0 mm 6 mps 751 mmHg 75%
    08:00 +15°C° 0 mm 7 mps 751 mmHg 71%
    09:00 +17°C° 0 mm 7 mps 751 mmHg 66%
    10:00 +20°C° 0 mm 7 mps 751 mmHg 61%
    11:00 +21°C° 0 mm 8 mps 750 mmHg 58%
    12:00 +22°C° 0 mm 8 mps 750 mmHg 55%
    13:00 +23°C° 0 mm 8 mps 750 mmHg 52%
    14:00 +23°C° 0 mm 8 mps 749 mmHg 54%
    15:00 +22°C° 0 mm 7 mps 749 mmHg 55%
    16:00 +22°C° 0 mm 7 mps 749 mmHg 57%
    17:00 +21°C° 0 mm 6 mps 749 mmHg 62%
    18:00 +19°C° 0 mm 6 mps 748 mmHg 67%
    19:00 +17°C° 0 mm 5 mps 748 mmHg 73%
    20:00 +16°C° 0.1 mm 6 mps 748 mmHg 76%
    21:00 +16°C° 0.1 mm 6 mps 748 mmHg 78%
    22:00 +15°C° 0.1 mm 6 mps 748 mmHg 81%
    23:00 +14°C° 0.1 mm 6 mps 748 mmHg 84%

    26 April, Friday

    Time Temperature Precipitation Wind Pressure Humidity
    00:00 +14°C° 0.1 mm 5 mps 747 mmHg 87%
    01:00 +13°C° 0.1 mm 5 mps 747 mmHg 90%
    02:00 +13°C° 0 mm 5 mps 747 mmHg 90%
    03:00 +13°C° 0 mm 5 mps 746 mmHg 91%
    04:00 +13°C° 0 mm 5 mps 746 mmHg 91%
    05:00 +14°C° 0 mm 5 mps 746 mmHg 87%
    06:00 +15°C° 0 mm 5 mps 746 mmHg 83%
    07:00 +16°C° 0 mm 6 mps 746 mmHg 79%
    08:00 +19°C° 0 mm 6 mps 746 mmHg 73%
    09:00 +21°C° 0 mm 6 mps 746 mmHg 67%
    10:00 +23°C° 0 mm 6 mps 746 mmHg 61%
    11:00 +24°C° 0 mm 7 mps 745 mmHg 57%
    12:00 +26°C° 0 mm 7 mps 745 mmHg 54%
    13:00 +27°C° 0 mm 7 mps 745 mmHg 50%
    14:00 +27°C° 0 mm 7 mps 744 mmHg 51%
    15:00 +26°C° 0 mm 6 mps 744 mmHg 52%
    16:00 +26°C° 0 mm 6 mps 744 mmHg 53%
    17:00 +23°C° 0 mm 5 mps 744 mmHg 59%
    18:00 +22°C° 0 mm 4 mps 744 mmHg 66%
    19:00 +20°C° 0 mm 3 mps 744 mmHg 72%
    20:00 +19°C° 0 mm 3 mps 744 mmHg 76%
    21:00 +18°C° 0 mm 3 mps 744 mmHg 80%
    22:00 +17°C° 0 mm 3 mps 744 mmHg 83%
    23:00 +17°C° 0.3 mm 3 mps 744 mmHg 87%
    Show more